Time,TemperatureF,DewpointF,PressureIn,WindDirection,WindDirectionDegrees,WindSpeedMPH,WindSpeedGustMPH,Humidity,HourlyPrecipIn,Conditions,Clouds,dailyrainin,SoftwareType,DateUTC
2013-03-28 00:00:00,46.5,43.1,30.06,SSW,211,0.0,0.0,88,0.00,,,0.00,Wunderground v.1.15,2013-03-28 07:00:00,
2013-03-28 00:10:00,46.4,43.3,30.06,SSW,211,0.0,0.0,89,0.00,,,0.00,Wunderground v.1.15,2013-03-28 07:10:00,
2013-03-28 00:15:00,46.3,43.2,30.06,SSW,211,0.0,0.0,89,0.00,,,0.00,Wunderground v.1.15,2013-03-28 07:15:00,
2013-03-28 00:20:00,46.2,42.8,30.06,SSW,211,0.0,0.0,88,0.00,,,0.00,Wunderground v.1.15,2013-03-28 07:20:00,
2013-03-28 00:25:00,46.0,42.6,30.06,SSW,211,0.0,0.0,88,0.00,,,0.00,Wunderground v.1.15,2013-03-28 07:25:00,
2013-03-28 00:30:00,46.0,42.9,30.05,SSW,211,0.0,0.0,89,0.00,,,0.00,Wunderground v.1.15,2013-03-28 07:30:00,
2013-03-28 00:40:00,45.8,42.7,30.05,SSW,212,0.0,0.0,89,0.00,,,0.00,Wunderground v.1.15,2013-03-28 07:40:00,
2013-03-28 00:50:00,45.6,42.5,30.05,SSW,212,0.0,0.0,89,0.00,,,0.00,Wunderground v.1.15,2013-03-28 07:50:00,
2013-03-28 00:55:00,45.6,42.8,30.05,SSW,211,0.0,0.0,90,0.00,,,0.00,Wunderground v.1.15,2013-03-28 07:55:00,
2013-03-28 01:00:00,45.5,42.7,30.05,SSW,212,0.0,0.0,90,0.00,,,0.00,Wunderground v.1.15,2013-03-28 08:00:00,
2013-03-28 01:05:00,45.4,42.6,30.05,SSW,211,0.0,0.0,90,0.00,,,0.00,Wunderground v.1.15,2013-03-28 08:05:00,
2013-03-28 01:10:00,45.4,42.6,30.05,SSW,211,0.0,0.0,90,0.00,,,0.00,Wunderground v.1.15,2013-03-28 08:10:00,
2013-03-28 01:15:00,45.3,42.5,30.05,SSW,212,0.0,0.0,90,0.00,,,0.00,Wunderground v.1.15,2013-03-28 08:15:00,
2013-03-28 01:20:00,45.2,42.4,30.05,SSW,211,0.0,0.0,90,0.00,,,0.00,Wunderground v.1.15,2013-03-28 08:20:00,
2013-03-28 01:25:00,45.2,42.4,30.05,SSW,211,0.0,0.0,90,0.00,,,0.00,Wunderground v.1.15,2013-03-28 08:25:00,
2013-03-28 01:30:00,45.1,42.3,30.05,SSW,211,0.0,0.0,90,0.00,,,0.00,Wunderground v.1.15,2013-03-28 08:30:00,
2013-03-28 01:35:00,45.0,42.2,30.05,SSW,211,0.0,0.0,90,0.00,,,0.00,Wunderground v.1.15,2013-03-28 08:35:00,
2013-03-28 01:40:00,44.9,42.1,30.05,SSW,211,0.0,0.0,90,0.00,,,0.00,Wunderground v.1.15,2013-03-28 08:40:00,
2013-03-28 01:50:00,44.7,41.9,30.05,SSW,211,0.0,0.0,90,0.00,,,0.00,Wunderground v.1.15,2013-03-28 08:50:00,
2013-03-28 01:55:00,44.6,41.8,30.05,SSW,211,0.0,0.0,90,0.00,,,0.00,Wunderground v.1.15,2013-03-28 08:55:00,
2013-03-28 02:00:00,44.6,41.8,30.05,SSW,211,0.0,0.0,90,0.00,,,0.00,Wunderground v.1.15,2013-03-28 09:00:00,
2013-03-28 02:10:00,44.4,41.7,30.05,SSW,211,0.0,0.0,90,0.00,,,0.00,Wunderground v.1.15,2013-03-28 09:10:00,
2013-03-28 02:15:00,44.3,41.8,30.05,SSW,211,0.0,0.0,91,0.00,,,0.00,Wunderground v.1.15,2013-03-28 09:15:00,
2013-03-28 02:20:00,44.3,41.8,30.05,SSW,212,0.0,0.0,91,0.00,,,0.00,Wunderground v.1.15,2013-03-28 09:20:00,
2013-03-28 02:25:00,44.3,41.8,30.05,SSW,211,0.0,0.0,91,0.00,,,0.00,Wunderground v.1.15,2013-03-28 09:25:00,
2013-03-28 02:30:00,44.3,41.8,30.05,SSW,211,0.0,0.0,91,0.00,,,0.00,Wunderground v.1.15,2013-03-28 09:30:00,
2013-03-28 02:35:00,44.3,41.8,30.05,SSW,211,0.0,0.0,91,0.00,,,0.00,Wunderground v.1.15,2013-03-28 09:35:00,
2013-03-28 02:40:00,44.3,41.8,30.05,SSW,211,0.0,0.0,91,0.00,,,0.00,Wunderground v.1.15,2013-03-28 09:40:00,
2013-03-28 02:45:00,44.2,41.7,30.05,SSW,212,0.0,0.0,91,0.00,,,0.00,Wunderground v.1.15,2013-03-28 09:45:00,
2013-03-28 02:55:00,44.2,41.7,30.04,SSW,211,0.0,0.0,91,0.00,,,0.00,Wunderground v.1.15,2013-03-28 09:55:00,
2013-03-28 03:00:00,44.2,41.7,30.04,SSW,211,0.0,0.0,91,0.00,,,0.00,Wunderground v.1.15,2013-03-28 10:00:00,
2013-03-28 03:05:00,44.2,41.7,30.04,SSW,212,0.0,0.0,91,0.00,,,0.00,Wunderground v.1.15,2013-03-28 10:05:00,
2013-03-28 03:15:00,44.2,41.7,30.04,SSW,211,0.0,0.0,91,0.00,,,0.00,Wunderground v.1.15,2013-03-28 10:15:00,
2013-03-28 03:20:00,44.2,41.7,30.03,SSW,211,0.0,0.0,91,0.00,,,0.00,Wunderground v.1.15,2013-03-28 10:20:00,
2013-03-28 03:30:00,44.2,42.0,30.04,SSW,211,0.0,0.0,92,0.00,,,0.00,Wunderground v.1.15,2013-03-28 10:30:00,
2013-03-28 03:35:00,44.2,42.0,30.03,SSW,212,0.0,0.0,92,0.00,,,0.00,Wunderground v.1.15,2013-03-28 10:35:00,
2013-03-28 03:40:00,44.2,42.0,30.03,SSW,211,0.0,0.0,92,0.00,,,0.00,Wunderground v.1.15,2013-03-28 10:40:00,
2013-03-28 03:45:00,44.1,41.9,30.03,SSW,211,0.0,0.0,92,0.00,,,0.00,Wunderground v.1.15,2013-03-28 10:45:00,
2013-03-28 03:50:00,44.1,41.9,30.03,SSW,211,0.0,0.0,92,0.00,,,0.00,Wunderground v.1.15,2013-03-28 10:50:00,
2013-03-28 03:55:00,44.0,41.8,30.03,SSW,211,0.0,0.0,92,0.00,,,0.00,Wunderground v.1.15,2013-03-28 10:55:00,
2013-03-28 04:00:00,44.0,41.8,30.03,SSW,211,0.0,0.0,92,0.00,,,0.00,Wunderground v.1.15,2013-03-28 11:00:00,
2013-03-28 04:10:00,43.8,41.6,30.04,SSW,211,0.0,0.0,92,0.00,,,0.00,Wunderground v.1.15,2013-03-28 11:10:00,
2013-03-28 04:15:00,43.8,41.6,30.04,SSW,211,0.0,0.0,92,0.00,,,0.00,Wunderground v.1.15,2013-03-28 11:15:00,
2013-03-28 04:20:00,43.7,41.5,30.04,SSW,211,0.0,0.0,92,0.00,,,0.00,Wunderground v.1.15,2013-03-28 11:20:00,
2013-03-28 04:25:00,43.6,41.4,30.04,SSW,212,0.0,0.0,92,0.00,,,0.00,Wunderground v.1.15,2013-03-28 11:25:00,
2013-03-28 04:30:00,43.6,41.4,30.03,SSW,211,0.0,0.0,92,0.00,,,0.00,Wunderground v.1.15,2013-03-28 11:30:00,
2013-03-28 04:40:00,43.5,41.3,30.04,SSW,211,0.0,0.0,92,0.00,,,0.00,Wunderground v.1.15,2013-03-28 11:40:00,
2013-03-28 04:45:00,43.6,41.7,30.04,SSW,211,0.0,0.0,93,0.00,,,0.00,Wunderground v.1.15,2013-03-28 11:45:00,
2013-03-28 04:50:00,43.6,41.4,30.04,SSW,211,0.0,0.0,92,0.00,,,0.00,Wunderground v.1.15,2013-03-28 11:50:00,
2013-03-28 04:55:00,43.5,41.3,30.04,SSW,211,0.0,0.0,92,0.00,,,0.00,Wunderground v.1.15,2013-03-28 11:55:00,
2013-03-28 05:00:00,43.4,41.2,30.04,SSW,212,0.0,0.0,92,0.00,,,0.00,Wunderground v.1.15,2013-03-28 12:00:00,
2013-03-28 05:05:00,43.4,41.2,30.04,SSW,211,0.0,0.0,92,0.00,,,0.00,Wunderground v.1.15,2013-03-28 12:05:00,
2013-03-28 05:10:00,43.3,41.4,30.04,SSW,212,0.0,0.0,93,0.00,,,0.00,Wunderground v.1.15,2013-03-28 12:10:00,
2013-03-28 05:15:00,43.3,41.1,30.04,SSW,211,0.0,0.0,92,0.00,,,0.00,Wunderground v.1.15,2013-03-28 12:15:00,
2013-03-28 05:25:00,43.1,40.9,30.04,SSW,211,0.0,0.0,92,0.00,,,0.00,Wunderground v.1.15,2013-03-28 12:25:00,
2013-03-28 05:30:00,43.0,40.8,30.04,SSW,211,0.0,0.0,92,0.00,,,0.00,Wunderground v.1.15,2013-03-28 12:30:00,
2013-03-28 05:35:00,42.9,40.7,30.04,SSW,211,0.0,0.0,92,0.00,,,0.00,Wunderground v.1.15,2013-03-28 12:35:00,
2013-03-28 05:45:00,42.7,40.5,30.04,SSW,211,0.0,0.0,92,0.00,,,0.00,Wunderground v.1.15,2013-03-28 12:45:00,
2013-03-28 05:50:00,42.6,40.7,30.04,SSW,211,0.0,0.0,93,0.00,,,0.00,Wunderground v.1.15,2013-03-28 12:50:00,
2013-03-28 05:55:00,42.7,40.8,30.04,SSW,211,0.0,0.0,93,0.00,,,0.00,Wunderground v.1.15,2013-03-28 12:55:00,
2013-03-28 06:00:00,42.7,40.8,30.04,SSW,211,0.0,0.0,93,0.00,,,0.00,Wunderground v.1.15,2013-03-28 13:00:00,
2013-03-28 06:05:00,42.6,40.7,30.04,SSW,211,0.0,0.0,93,0.00,,,0.00,Wunderground v.1.15,2013-03-28 13:05:00,
2013-03-28 06:15:00,42.5,40.6,30.04,SSW,211,0.0,0.0,93,0.00,,,0.00,Wunderground v.1.15,2013-03-28 13:15:00,
2013-03-28 06:25:00,42.4,40.5,30.05,SSW,211,0.0,0.0,93,0.00,,,0.00,Wunderground v.1.15,2013-03-28 13:25:00,
2013-03-28 06:30:00,42.3,40.4,30.05,SSW,211,0.0,0.0,93,0.00,,,0.00,Wunderground v.1.15,2013-03-28 13:30:00,
2013-03-28 06:35:00,42.3,40.4,30.05,SSW,211,0.0,0.0,93,0.00,,,0.00,Wunderground v.1.15,2013-03-28 13:35:00,
2013-03-28 06:40:00,42.3,40.4,30.05,SSW,211,0.0,0.0,93,0.00,,,0.00,Wunderground v.1.15,2013-03-28 13:40:00,
2013-03-28 06:45:00,42.2,40.3,30.06,SSW,211,0.0,0.0,93,0.00,,,0.00,Wunderground v.1.15,2013-03-28 13:45:00,
2013-03-28 06:50:00,42.2,40.3,30.06,SSW,211,0.0,0.0,93,0.00,,,0.00,Wunderground v.1.15,2013-03-28 13:50:00,
2013-03-28 06:55:00,42.3,40.4,30.06,SSW,211,0.0,0.0,93,0.00,,,0.00,Wunderground v.1.15,2013-03-28 13:55:00,
2013-03-28 07:00:00,42.4,40.5,30.06,SSW,211,0.0,0.0,93,0.00,,,0.00,Wunderground v.1.15,2013-03-28 14:00:00,
2013-03-28 07:05:00,42.4,40.5,30.06,SSW,211,0.0,0.0,93,0.00,,,0.00,Wunderground v.1.15,2013-03-28 14:05:00,
2013-03-28 07:10:00,42.4,40.5,30.07,SSW,212,0.0,0.0,93,0.00,,,0.00,Wunderground v.1.15,2013-03-28 14:10:00,
2013-03-28 07:15:00,42.4,40.5,30.07,SSW,211,0.0,0.0,93,0.00,,,0.00,Wunderground v.1.15,2013-03-28 14:15:00,
2013-03-28 07:20:00,42.4,40.5,30.07,SSW,211,0.0,0.0,93,0.00,,,0.00,Wunderground v.1.15,2013-03-28 14:20:00,
2013-03-28 07:25:00,42.6,41.0,30.07,SSW,211,0.0,0.0,94,0.00,,,0.00,Wunderground v.1.15,2013-03-28 14:25:00,
2013-03-28 07:30:00,42.7,41.1,30.08,SSW,211,0.0,0.0,94,0.00,,,0.00,Wunderground v.1.15,2013-03-28 14:30:00,
2013-03-28 07:35:00,42.9,41.3,30.08,SSW,212,0.0,0.0,94,0.00,,,0.00,Wunderground v.1.15,2013-03-28 14:35:00,
2013-03-28 07:45:00,43.8,42.5,30.08,SSW,211,0.0,0.0,95,0.00,,,0.00,Wunderground v.1.15,2013-03-28 14:45:00,
2013-03-28 07:50:00,44.2,42.9,30.08,SSW,211,0.0,0.0,95,0.00,,,0.00,Wunderground v.1.15,2013-03-28 14:50:00,
2013-03-28 08:00:00,45.1,43.8,30.08,SSW,212,0.0,0.0,95,0.00,,,0.00,Wunderground v.1.15,2013-03-28 15:00:00,
2013-03-28 08:05:00,45.7,44.4,30.08,SSW,212,0.0,0.0,95,0.00,,,0.00,Wunderground v.1.15,2013-03-28 15:05:00,
2013-03-28 08:10:00,46.4,45.0,30.08,SSW,211,0.0,0.0,95,0.00,,,0.00,Wunderground v.1.15,2013-03-28 15:10:00,
2013-03-28 08:15:00,47.1,45.7,30.08,SSW,211,0.0,0.0,95,0.00,,,0.00,Wunderground v.1.15,2013-03-28 15:15:00,
2013-03-28 08:20:00,47.7,46.6,30.08,SSW,212,0.0,0.0,96,0.00,,,0.00,Wunderground v.1.15,2013-03-28 15:20:00,
2013-03-28 08:25:00,48.3,47.2,30.09,SSW,212,0.0,0.0,96,0.00,,,0.00,Wunderground v.1.15,2013-03-28 15:25:00,
2013-03-28 08:35:00,49.2,48.1,30.09,SSW,211,0.0,0.0,96,0.00,,,0.00,Wunderground v.1.15,2013-03-28 15:35:00,
2013-03-28 08:40:00,49.4,48.0,30.09,SSW,212,0.0,0.0,95,0.00,,,0.00,Wunderground v.1.15,2013-03-28 15:40:00,
2013-03-28 08:45:00,49.6,48.2,30.09,SSW,211,0.0,0.0,95,0.00,,,0.00,Wunderground v.1.15,2013-03-28 15:45:00,
2013-03-28 08:50:00,49.7,48.3,30.09,SSW,211,0.0,0.0,95,0.00,,,0.00,Wunderground v.1.15,2013-03-28 15:50:00,
2013-03-28 08:55:00,49.8,48.4,30.09,SSW,211,0.0,0.0,95,0.00,,,0.00,Wunderground v.1.15,2013-03-28 15:55:00,
2013-03-28 09:05:00,50.0,48.6,30.10,SSW,211,0.0,0.0,95,0.00,,,0.00,Wunderground v.1.15,2013-03-28 16:05:00,
2013-03-28 09:15:00,50.3,48.9,30.09,SSW,212,0.0,0.0,95,0.00,,,0.00,Wunderground v.1.15,2013-03-28 16:15:00,
2013-03-28 09:20:00,50.5,49.1,30.10,SSW,212,0.0,0.0,95,0.00,,,0.00,Wunderground v.1.15,2013-03-28 16:20:00,
2013-03-28 09:25:00,50.8,49.4,30.10,SSW,212,0.0,0.0,95,0.00,,,0.00,Wunderground v.1.15,2013-03-28 16:25:00,
2013-03-28 09:30:00,51.2,49.8,30.10,SSW,211,0.0,0.0,95,0.00,,,0.00,Wunderground v.1.15,2013-03-28 16:30:00,
2013-03-28 09:35:00,51.6,50.2,30.10,SSW,211,0.0,0.0,95,0.00,,,0.00,Wunderground v.1.15,2013-03-28 16:35:00,
2013-03-28 09:40:00,52.0,50.6,30.10,SW,214,0.0,0.0,95,0.00,,,0.00,Wunderground v.1.15,2013-03-28 16:40:00,
2013-03-28 09:45:00,52.4,51.0,30.10,SW,214,0.0,2.0,95,0.00,,,0.00,Wunderground v.1.15,2013-03-28 16:45:00,
2013-03-28 09:50:00,52.8,51.4,30.09,SW,227,0.0,0.0,95,0.00,,,0.00,Wunderground v.1.15,2013-03-28 16:50:00,
2013-03-28 09:55:00,53.0,51.6,30.10,SW,227,0.0,0.0,95,0.00,,,0.00,Wunderground v.1.15,2013-03-28 16:55:00,
2013-03-28 10:05:00,53.0,51.3,30.10,SW,227,0.0,0.0,94,0.00,,,0.00,Wunderground v.1.15,2013-03-28 17:05:00,
2013-03-28 10:15:00,54.1,52.7,30.10,SW,227,1.0,1.0,95,0.00,,,0.00,Wunderground v.1.15,2013-03-28 17:15:00,
2013-03-28 10:20:00,54.6,52.6,30.10,SW,227,0.0,0.0,93,0.00,,,0.00,Wunderground v.1.15,2013-03-28 17:20:00,
2013-03-28 10:25:00,55.1,53.1,30.10,SW,227,0.0,0.0,93,0.00,,,0.00,Wunderground v.1.15,2013-03-28 17:25:00,
2013-03-28 10:30:00,55.9,53.9,30.09,SW,227,0.0,0.0,93,0.00,,,0.00,Wunderground v.1.15,2013-03-28 17:30:00,
2013-03-28 10:35:00,57.0,54.7,30.09,SW,227,0.0,0.0,92,0.00,,,0.00,Wunderground v.1.15,2013-03-28 17:35:00,
2013-03-28 10:40:00,58.0,54.8,30.09,SSW,204,1.0,1.0,89,0.00,,,0.00,Wunderground v.1.15,2013-03-28 17:40:00,
2013-03-28 10:45:00,59.0,54.8,30.10,SSW,197,1.0,1.0,86,0.00,,,0.00,Wunderground v.1.15,2013-03-28 17:45:00,
2013-03-28 10:50:00,59.3,53.8,30.10,SSW,198,1.0,1.0,82,0.00,,,0.00,Wunderground v.1.15,2013-03-28 17:50:00,
2013-03-28 10:55:00,59.7,53.5,30.09,WNW,301,1.0,1.0,80,0.00,,,0.00,Wunderground v.1.15,2013-03-28 17:55:00,
2013-03-28 11:00:00,60.5,54.3,30.09,SSE,162,1.0,2.0,80,0.00,,,0.00,Wunderground v.1.15,2013-03-28 18:00:00,
2013-03-28 11:05:00,61.5,53.9,30.09,South,183,1.0,2.0,76,0.00,,,0.00,Wunderground v.1.15,2013-03-28 18:05:00,
2013-03-28 11:10:00,62.1,54.1,30.09,SW,228,2.0,2.0,75,0.00,,,0.00,Wunderground v.1.15,2013-03-28 18:10:00,
2013-03-28 11:20:00,63.3,54.5,30.09,South,174,2.0,2.0,73,0.00,,,0.00,Wunderground v.1.15,2013-03-28 18:20:00,
2013-03-28 11:25:00,64.0,54.4,30.09,SSW,198,2.0,2.0,71,0.00,,,0.00,Wunderground v.1.15,2013-03-28 18:25:00,
2013-03-28 11:30:00,64.6,54.6,30.09,SSE,167,2.0,2.0,70,0.00,,,0.00,Wunderground v.1.15,2013-03-28 18:30:00,
2013-03-28 11:35:00,65.0,54.6,30.09,SW,236,1.0,2.0,69,0.00,,,0.00,Wunderground v.1.15,2013-03-28 18:35:00,
2013-03-28 11:40:00,65.5,53.8,30.08,SW,214,1.0,2.0,66,0.00,,,0.00,Wunderground v.1.15,2013-03-28 18:40:00,
2013-03-28 11:45:00,65.7,53.6,30.08,South,191,2.0,4.0,65,0.00,,,0.00,Wunderground v.1.15,2013-03-28 18:45:00,
2013-03-28 11:55:00,66.6,54.9,30.08,South,190,2.0,4.0,66,0.00,,,0.00,Wunderground v.1.15,2013-03-28 18:55:00,
2013-03-28 12:00:00,67.4,54.8,30.08,SSE,161,3.0,3.0,64,0.00,,,0.00,Wunderground v.1.15,2013-03-28 19:00:00,
2013-03-28 12:05:00,68.0,55.4,30.08,SE,125,3.0,4.0,64,0.00,,,0.00,Wunderground v.1.15,2013-03-28 19:05:00,
2013-03-28 12:10:00,68.6,53.7,30.07,WSW,237,2.0,3.0,59,0.00,,,0.00,Wunderground v.1.15,2013-03-28 19:10:00,
2013-03-28 12:20:00,68.8,55.2,30.07,SSE,150,1.0,1.0,62,0.00,,,0.00,Wunderground v.1.15,2013-03-28 19:20:00,
2013-03-28 12:30:00,70.6,54.6,30.07,SSE,151,2.0,2.0,57,0.00,,,0.00,Wunderground v.1.15,2013-03-28 19:30:00,
2013-03-28 12:35:00,71.1,54.1,30.06,South,184,2.0,2.0,55,0.00,,,0.00,Wunderground v.1.15,2013-03-28 19:35:00,
2013-03-28 12:40:00,70.8,53.3,30.06,SSW,195,2.0,3.0,54,0.00,,,0.00,Wunderground v.1.15,2013-03-28 19:40:00,
2013-03-28 12:45:00,69.6,53.7,30.06,SSW,193,2.0,3.0,57,0.00,,,0.00,Wunderground v.1.15,2013-03-28 19:45:00,
2013-03-28 12:50:00,69.3,53.4,30.06,SSE,166,2.0,2.0,57,0.00,,,0.00,Wunderground v.1.15,2013-03-28 19:50:00,
2013-03-28 13:00:00,70.3,54.8,30.06,West,269,2.0,4.0,58,0.00,,,0.00,Wunderground v.1.15,2013-03-28 20:00:00,
2013-03-28 13:05:00,70.0,54.1,30.06,SW,219,3.0,4.0,57,0.00,,,0.00,Wunderground v.1.15,2013-03-28 20:05:00,
2013-03-28 13:10:00,69.8,54.8,30.06,SSE,160,3.0,3.0,59,0.00,,,0.00,Wunderground v.1.15,2013-03-28 20:10:00,
2013-03-28 13:20:00,70.2,54.7,30.06,SSE,156,2.0,4.0,58,0.00,,,0.00,Wunderground v.1.15,2013-03-28 20:20:00,
2013-03-28 13:25:00,70.5,54.0,30.06,South,182,3.0,6.0,56,0.00,,,0.00,Wunderground v.1.15,2013-03-28 20:25:00,
2013-03-28 13:35:00,71.5,55.9,30.06,SSW,207,1.0,2.0,58,0.00,,,0.00,Wunderground v.1.15,2013-03-28 20:35:00,
2013-03-28 13:40:00,71.5,55.0,30.06,SSE,161,2.0,2.0,56,0.00,,,0.00,Wunderground v.1.15,2013-03-28 20:40:00,
2013-03-28 13:45:00,71.3,54.8,30.06,SSW,201,3.0,7.0,56,0.00,,,0.00,Wunderground v.1.15,2013-03-28 20:45:00,
2013-03-28 13:50:00,71.1,55.6,30.06,South,186,3.0,3.0,58,0.00,,,0.00,Wunderground v.1.15,2013-03-28 20:50:00,
2013-03-28 13:55:00,71.5,55.5,30.06,South,188,2.0,5.0,57,0.00,,,0.00,Wunderground v.1.15,2013-03-28 20:55:00,
2013-03-28 14:00:00,71.1,55.6,30.06,WSW,245,3.0,3.0,58,0.00,,,0.00,Wunderground v.1.15,2013-03-28 21:00:00,
2013-03-28 14:10:00,70.5,55.5,30.06,WNW,303,2.0,2.0,59,0.00,,,0.00,Wunderground v.1.15,2013-03-28 21:10:00,
2013-03-28 14:15:00,70.8,55.8,30.06,NNE,26,1.0,2.0,59,0.00,,,0.00,Wunderground v.1.15,2013-03-28 21:15:00,
2013-03-28 14:20:00,71.4,56.3,30.05,WSW,245,1.0,2.0,59,0.00,,,0.00,Wunderground v.1.15,2013-03-28 21:20:00,
2013-03-28 14:25:00,71.6,55.1,30.05,WSW,243,2.0,2.0,56,0.00,,,0.00,Wunderground v.1.15,2013-03-28 21:25:00,
2013-03-28 14:30:00,71.7,55.7,30.05,SE,138,2.0,2.0,57,0.00,,,0.00,Wunderground v.1.15,2013-03-28 21:30:00,
2013-03-28 14:40:00,72.0,54.9,30.05,West,266,2.0,2.0,55,0.00,,,0.00,Wunderground v.1.15,2013-03-28 21:40:00,
2013-03-28 14:45:00,71.9,55.8,30.05,East,90,2.0,2.0,57,0.00,,,0.00,Wunderground v.1.15,2013-03-28 21:45:00,
2013-03-28 14:50:00,72.2,55.1,30.05,SW,232,1.0,1.0,55,0.00,,,0.00,Wunderground v.1.15,2013-03-28 21:50:00,
2013-03-28 14:55:00,72.2,55.6,30.05,NNW,342,2.0,2.0,56,0.00,,,0.00,Wunderground v.1.15,2013-03-28 21:55:00,
2013-03-28 15:00:00,72.5,55.9,30.04,South,185,2.0,2.0,56,0.00,,,0.00,Wunderground v.1.15,2013-03-28 22:00:00,
2013-03-28 15:05:00,72.5,55.4,30.04,WSW,243,2.0,2.0,55,0.00,,,0.00,Wunderground v.1.15,2013-03-28 22:05:00,
2013-03-28 15:10:00,72.7,55.6,30.04,South,186,2.0,2.0,55,0.00,,,0.00,Wunderground v.1.15,2013-03-28 22:10:00,
2013-03-28 15:15:00,73.0,55.4,30.04,WSW,249,2.0,5.0,54,0.00,,,0.00,Wunderground v.1.15,2013-03-28 22:15:00,
2013-03-28 15:20:00,72.2,54.1,30.04,West,280,3.0,3.0,53,0.00,,,0.00,Wunderground v.1.15,2013-03-28 22:20:00,
2013-03-28 15:25:00,71.1,54.6,30.04,SW,217,3.0,3.0,56,0.00,,,0.00,Wunderground v.1.15,2013-03-28 22:25:00,
2013-03-28 15:35:00,70.7,54.7,30.05,SSE,166,2.0,4.0,57,0.00,,,0.00,Wunderground v.1.15,2013-03-28 22:35:00,
2013-03-28 15:40:00,70.7,54.7,30.05,NNW,337,2.0,2.0,57,0.00,,,0.00,Wunderground v.1.15,2013-03-28 22:40:00,
2013-03-28 15:50:00,70.3,55.8,30.04,NNW,347,2.0,2.0,60,0.00,,,0.00,Wunderground v.1.15,2013-03-28 22:50:00,
2013-03-28 15:55:00,70.6,54.6,30.04,SW,214,2.0,2.0,57,0.00,,,0.00,Wunderground v.1.15,2013-03-28 22:55:00,
2013-03-28 16:00:00,70.7,54.7,30.04,South,190,2.0,2.0,57,0.00,,,0.00,Wunderground v.1.15,2013-03-28 23:00:00,
2013-03-28 16:05:00,70.4,54.9,30.04,WNW,303,1.0,5.0,58,0.00,,,0.00,Wunderground v.1.15,2013-03-28 23:05:00,
2013-03-28 16:10:00,69.5,54.1,30.04,SSW,199,2.0,2.0,58,0.00,,,0.00,Wunderground v.1.15,2013-03-28 23:10:00,
2013-03-28 16:20:00,68.8,53.9,30.04,West,273,1.0,2.0,59,0.00,,,0.00,Wunderground v.1.15,2013-03-28 23:20:00,
2013-03-28 16:25:00,68.2,53.8,30.04,SSW,212,1.0,3.0,60,0.00,,,0.00,Wunderground v.1.15,2013-03-28 23:25:00,
2013-03-28 16:30:00,67.7,53.8,30.04,South,172,1.0,1.0,61,0.00,,,0.00,Wunderground v.1.15,2013-03-28 23:30:00,
2013-03-28 16:40:00,67.4,53.9,30.04,SSW,199,1.0,1.0,62,0.00,,,0.00,Wunderground v.1.15,2013-03-28 23:40:00,
2013-03-28 16:45:00,66.6,54.0,30.04,SE,139,2.0,2.0,64,0.00,,,0.00,Wunderground v.1.15,2013-03-28 23:45:00,
2013-03-28 16:50:00,66.2,53.7,30.05,West,268,2.0,4.0,64,0.00,,,0.00,Wunderground v.1.15,2013-03-28 23:50:00,
2013-03-28 17:00:00,65.2,53.6,30.05,SSW,195,2.0,2.0,66,0.00,,,0.00,Wunderground v.1.15,2013-03-29 00:00:00,
2013-03-28 17:05:00,64.9,53.7,30.05,SSW,213,1.0,3.0,67,0.00,,,0.00,Wunderground v.1.15,2013-03-29 00:05:00,
2013-03-28 17:10:00,64.6,53.4,30.05,WSW,249,2.0,5.0,67,0.00,,,0.00,Wunderground v.1.15,2013-03-29 00:10:00,
2013-03-28 17:15:00,64.2,53.0,30.05,South,191,2.0,7.0,67,0.00,,,0.00,Wunderground v.1.15,2013-03-29 00:15:00,
2013-03-28 17:20:00,63.4,52.7,30.05,West,269,2.0,2.0,68,0.00,,,0.00,Wunderground v.1.15,2013-03-29 00:20:00,
2013-03-28 17:30:00,62.4,52.5,30.05,South,176,2.0,2.0,70,0.00,,,0.00,Wunderground v.1.15,2013-03-29 00:30:00,
2013-03-28 17:35:00,62.3,52.8,30.05,SE,125,1.0,2.0,71,0.00,,,0.00,Wunderground v.1.15,2013-03-29 00:35:00,
2013-03-28 17:40:00,62.3,52.8,30.05,SSE,157,0.0,1.0,71,0.00,,,0.00,Wunderground v.1.15,2013-03-29 00:40:00,
2013-03-28 17:45:00,62.0,52.5,30.05,SSE,156,0.0,1.0,71,0.00,,,0.00,Wunderground v.1.15,2013-03-29 00:45:00,
2013-03-28 17:50:00,61.8,52.3,30.05,SSE,156,0.0,0.0,71,0.00,,,0.00,Wunderground v.1.15,2013-03-29 00:50:00,
2013-03-28 18:00:00,61.4,52.3,30.05,SSE,157,0.0,0.0,72,0.00,,,0.00,Wunderground v.1.15,2013-03-29 01:00:00,
2013-03-28 18:05:00,61.2,52.5,30.05,SSE,157,0.0,0.0,73,0.00,,,0.00,Wunderground v.1.15,2013-03-29 01:05:00,
2013-03-28 18:10:00,61.1,52.4,30.05,SSE,157,0.0,0.0,73,0.00,,,0.00,Wunderground v.1.15,2013-03-29 01:10:00,
2013-03-28 18:20:00,61.1,52.4,30.04,SSE,157,0.0,1.0,73,0.00,,,0.00,Wunderground v.1.15,2013-03-29 01:20:00,
2013-03-28 18:25:00,61.0,52.3,30.05,SSE,157,0.0,1.0,73,0.00,,,0.00,Wunderground v.1.15,2013-03-29 01:25:00,
2013-03-28 18:30:00,60.4,52.1,30.05,SSE,157,0.0,0.0,74,0.00,,,0.00,Wunderground v.1.15,2013-03-29 01:30:00,
2013-03-28 18:35:00,60.2,52.2,30.04,SSE,157,0.0,0.0,75,0.00,,,0.00,Wunderground v.1.15,2013-03-29 01:35:00,
2013-03-28 18:40:00,60.0,52.1,30.05,SSE,157,0.0,1.0,75,0.00,,,0.00,Wunderground v.1.15,2013-03-29 01:40:00,
2013-03-28 18:45:00,59.6,52.0,30.05,SSE,157,0.0,2.0,76,0.00,,,0.00,Wunderground v.1.15,2013-03-29 01:45:00,
2013-03-28 18:50:00,59.4,52.2,30.06,West,270,1.0,3.0,77,0.00,,,0.00,Wunderground v.1.15,2013-03-29 01:50:00,
2013-03-28 19:00:00,58.7,51.9,30.05,SE,143,2.0,2.0,78,0.00,,,0.00,Wunderground v.1.15,2013-03-29 02:00:00,
2013-03-28 19:10:00,58.6,52.1,30.04,NE,43,1.0,3.0,79,0.00,,,0.00,Wunderground v.1.15,2013-03-29 02:10:00,
2013-03-28 19:15:00,58.4,51.9,30.04,ESE,107,1.0,3.0,79,0.00,,,0.00,Wunderground v.1.15,2013-03-29 02:15:00,
2013-03-28 19:20:00,58.2,52.1,30.04,ESE,107,0.0,0.0,80,0.00,,,0.00,Wunderground v.1.15,2013-03-29 02:20:00,
2013-03-28 19:25:00,58.1,52.0,30.03,ESE,104,1.0,1.0,80,0.00,,,0.00,Wunderground v.1.15,2013-03-29 02:25:00,
2013-03-28 19:30:00,58.0,51.9,30.04,ESE,104,1.0,1.0,80,0.00,,,0.00,Wunderground v.1.15,2013-03-29 02:30:00,
2013-03-28 19:35:00,57.8,51.7,30.04,ESE,104,0.0,1.0,80,0.00,,,0.00,Wunderground v.1.15,2013-03-29 02:35:00,
2013-03-28 19:40:00,57.5,51.7,30.05,ESE,104,1.0,1.0,81,0.00,,,0.00,Wunderground v.1.15,2013-03-29 02:40:00,
2013-03-28 19:45:00,57.2,51.4,30.05,ESE,107,0.0,1.0,81,0.00,,,0.00,Wunderground v.1.15,2013-03-29 02:45:00,
2013-03-28 19:50:00,57.0,51.2,30.05,ESE,114,0.0,0.0,81,0.00,,,0.00,Wunderground v.1.15,2013-03-29 02:50:00,
2013-03-28 19:55:00,56.8,51.4,30.05,NE,45,1.0,1.0,82,0.00,,,0.00,Wunderground v.1.15,2013-03-29 02:55:00,
2013-03-28 20:00:00,56.5,51.1,30.05,NE,45,1.0,1.0,82,0.00,,,0.00,Wunderground v.1.15,2013-03-29 03:00:00,
2013-03-28 20:05:00,56.3,51.2,30.04,NE,45,1.0,1.0,83,0.00,,,0.00,Wunderground v.1.15,2013-03-29 03:05:00,
2013-03-28 20:10:00,56.2,50.8,30.04,NE,45,0.0,0.0,82,0.00,,,0.00,Wunderground v.1.15,2013-03-29 03:10:00,
2013-03-28 20:15:00,56.0,50.9,30.05,NE,45,0.0,0.0,83,0.00,,,0.00,Wunderground v.1.15,2013-03-29 03:15:00,
2013-03-28 20:20:00,55.8,50.7,30.05,NE,45,0.0,0.0,83,0.00,,,0.00,Wunderground v.1.15,2013-03-29 03:20:00,
2013-03-28 20:25:00,55.6,50.5,30.06,NE,45,0.0,2.0,83,0.00,,,0.00,Wunderground v.1.15,2013-03-29 03:25:00,
2013-03-28 20:35:00,55.1,50.4,30.06,NE,45,0.0,0.0,84,0.00,,,0.00,Wunderground v.1.15,2013-03-29 03:35:00,
2013-03-28 20:40:00,54.8,50.4,30.07,NE,45,0.0,1.0,85,0.00,,,0.00,Wunderground v.1.15,2013-03-29 03:40:00,
2013-03-28 20:50:00,54.4,50.3,30.07,NE,45,0.0,0.0,86,0.00,,,0.00,Wunderground v.1.15,2013-03-29 03:50:00,
2013-03-28 20:55:00,54.2,49.8,30.07,NE,45,0.0,0.0,85,0.00,,,0.00,Wunderground v.1.15,2013-03-29 03:55:00,
2013-03-28 21:00:00,54.0,49.6,30.06,NE,45,0.0,0.0,85,0.00,,,0.00,Wunderground v.1.15,2013-03-29 04:00:00,
2013-03-28 21:05:00,53.8,49.4,30.06,NE,45,0.0,0.0,85,0.00,,,0.00,Wunderground v.1.15,2013-03-29 04:05:00,
2013-03-28 21:10:00,53.6,49.2,30.06,NE,45,0.0,0.0,85,0.00,,,0.00,Wunderground v.1.15,2013-03-29 04:10:00,
2013-03-28 21:15:00,53.4,49.0,30.07,NE,45,0.0,0.0,85,0.00,,,0.00,Wunderground v.1.15,2013-03-29 04:15:00,
2013-03-28 21:25:00,53.1,49.3,30.07,NE,45,0.0,0.0,87,0.00,,,0.00,Wunderground v.1.15,2013-03-29 04:25:00,
2013-03-28 21:30:00,52.8,49.0,30.07,NE,45,0.0,0.0,87,0.00,,,0.00,Wunderground v.1.15,2013-03-29 04:30:00,
2013-03-28 21:35:00,52.6,48.8,30.07,NE,45,0.0,0.0,87,0.00,,,0.00,Wunderground v.1.15,2013-03-29 04:35:00,
2013-03-28 21:40:00,52.4,48.6,30.07,NE,45,0.0,0.0,87,0.00,,,0.00,Wunderground v.1.15,2013-03-29 04:40:00,
2013-03-28 21:45:00,52.1,48.3,30.07,NE,45,0.0,0.0,87,0.00,,,0.00,Wunderground v.1.15,2013-03-29 04:45:00,
2013-03-28 21:55:00,51.7,48.0,30.08,NE,45,0.0,0.0,87,0.00,,,0.00,Wunderground v.1.15,2013-03-29 04:55:00,
2013-03-28 22:05:00,51.3,47.9,30.08,NE,45,0.0,0.0,88,0.00,,,0.00,Wunderground v.1.15,2013-03-29 05:05:00,
2013-03-28 22:10:00,51.1,47.7,30.09,NE,45,0.0,0.0,88,0.00,,,0.00,Wunderground v.1.15,2013-03-29 05:10:00,
2013-03-28 22:15:00,50.9,47.5,30.08,NE,45,0.0,0.0,88,0.00,,,0.00,Wunderground v.1.15,2013-03-29 05:15:00,
2013-03-28 22:20:00,50.7,47.3,30.09,NE,45,0.0,0.0,88,0.00,,,0.00,Wunderground v.1.15,2013-03-29 05:20:00,
2013-03-28 22:25:00,50.5,47.1,30.08,NE,45,0.0,0.0,88,0.00,,,0.00,Wunderground v.1.15,2013-03-29 05:25:00,
2013-03-28 22:30:00,50.3,46.9,30.08,NE,45,0.0,0.0,88,0.00,,,0.00,Wunderground v.1.15,2013-03-29 05:30:00,
2013-03-28 22:35:00,50.1,46.7,30.08,NE,45,0.0,0.0,88,0.00,,,0.00,Wunderground v.1.15,2013-03-29 05:35:00,
2013-03-28 22:45:00,49.8,46.7,30.08,NE,45,0.0,0.0,89,0.00,,,0.00,Wunderground v.1.15,2013-03-29 05:45:00,
2013-03-28 22:50:00,49.6,46.5,30.08,NE,45,0.0,0.0,89,0.00,,,0.00,Wunderground v.1.15,2013-03-29 05:50:00,
2013-03-28 22:55:00,49.5,46.4,30.08,NE,45,0.0,0.0,89,0.00,,,0.00,Wunderground v.1.15,2013-03-29 05:55:00,
2013-03-28 23:05:00,49.4,46.3,30.08,NE,45,0.0,0.0,89,0.00,,,0.00,Wunderground v.1.15,2013-03-29 06:05:00,
2013-03-28 23:10:00,49.4,46.6,30.08,NE,45,0.0,0.0,90,0.00,,,0.00,Wunderground v.1.15,2013-03-29 06:10:00,
2013-03-28 23:15:00,49.2,46.4,30.08,NE,45,0.0,0.0,90,0.00,,,0.00,Wunderground v.1.15,2013-03-29 06:15:00,
2013-03-28 23:20:00,49.1,46.3,30.08,NE,45,0.0,0.0,90,0.00,,,0.00,Wunderground v.1.15,2013-03-29 06:20:00,
2013-03-28 23:25:00,49.0,46.2,30.08,NE,45,0.0,0.0,90,0.00,,,0.00,Wunderground v.1.15,2013-03-29 06:25:00,
2013-03-28 23:35:00,48.7,45.9,30.08,NE,45,0.0,0.0,90,0.00,,,0.00,Wunderground v.1.15,2013-03-29 06:35:00,
2013-03-28 23:45:00,48.5,45.7,30.08,NE,45,0.0,0.0,90,0.00,,,0.00,Wunderground v.1.15,2013-03-29 06:45:00,
2013-03-28 23:50:00,48.4,45.6,30.08,NE,45,0.0,0.0,90,0.00,,,0.00,Wunderground v.1.15,2013-03-29 06:50:00,
2013-03-28 23:55:00,48.3,45.5,30.08,NE,45,0.0,0.0,90,0.00,,,0.00,Wunderground v.1.15,2013-03-29 06:55:00,